Location: Gleizolles
(44.4833°N, 6.7667°E)
Time: 04:01:40
(UTC+00:00)

X-37B - Pass Details

Date: 09 December 2021
Orbit: 334 x 337 km, 45.0° (Epoch: 11 January)

Event Time Altitude Azimuth Distance (km) Brightness Sun altitude
Rises 17:53:16 0° 255° (WSW) 2,100 5.9 -20.6°
Reaches altitude 10° 17:55:16 10° 255° (WSW) 1,265 4.4 -21.0°
Enters shadow 17:57:14 40° 249° (WSW) 507 1.6 -21.3°
